Lid_Strength_Index
13 16 16 14 11 9 7 6 7 8 5 6 7 4 3 1 1 0 0 -0 -0 -1 -1 -1 -1 -1 -1 -1 -1 -1 -1 -1
15 16 13 12 11 9 8 6 7 5 7 4 2 3 2 1 0 1 0 -0 -0 -1 -1 -1 -1 -1 -1 -1 -1 -1 -1 -1
17 15 12 10 9 9 7 8 8 6 7 6 3 2 1 1 1 1 1 -0 -0 -1 -1 -1 -1 -1 -1 -1 -1 -1 -1 -1
18 15 12 10 10 9 6 7 7 6 7 6 2 2 2 1 1 0 1 0 -0 -1 -1 -1 -1 -1 -1 -1 -1 -1 -1 -1
16 14 14 11 10 10 10 7 8 5 8 8 5 2 1 1 1 0 0 0 -0 -0 -0 -1 -1 -1 -1 -1 -1 -1 -1 -1
16 14 14 11 11 12 9 8 6 6 10 11 8 3 2 1 1 1 1 0 0 0 0 0 -0 -1 -1 -1 -1 -1 -1 -1
16 14 13 11 12 10 9 7 7 6 8 8 6 7 2 2 2 2 1 1 0 0 -0 -0 -0 -0 -0 -1 -1 -1 -1 -1
12 12 12 11 12 11 10 10 9 7 6 5 5 7 6 4 4 3 2 1 1 0 0 0 -0 -0 -0 -0 -0 -0 -0 -0
11 10 11 12 11 10 11 12 10 10 9 8 7 6 7 5 3 3 2 1 1 1 0 0 0 -0 -0 -0 -0 -0 -0 -0
10 9 10 11 10 11 11 10 8 9 8 8 9 8 7 7 6 7 2 2 1 1 1 1 0 0 0 0 -0 -0 -0 -0
8 8 9 9 10 10 10 8 8 8 7 7 7 7 7 7 7 7 3 2 2 1 1 0 0 0 0 0 0 -0 -0 -0
9 8 9 9 9 8 7 6 7 8 8 7 7 6 6 7 7 3 2 2 2 1 1 2 1 1 1 0 0 -0 -0 -0
9 9 9 8 10 10 7 6 7 7 7 7 7 7 7 6 6 5 2 2 1 1 1 1 1 0 0 1 1 1 1 -0
11 9 8 9 12 9 7 8 8 7 7 6 6 6 5 5 5 3 2 3 2 1 1 1 2 3 0 0 1 2 2 1
11 9 9 10 11 8 7 8 8 8 7 7 7 6 6 4 2 3 3 3 4 4 3 3 4 3 1 1 1 2 2 2
12 10 10 11 11 8 8 8 8 8 8 7 7 7 6 4 3 4 4 3 3 2 4 4 4 2 1 1 1 1 1 2
10 9 10 11 12 10 9 10 9 9 9 8 7 6 5 5 3 3 3 3 3 3 2 2 3 5 3 2 2 1 1 1
10 9 10 11 12 10 10 9 9 8 8 8 7 7 6 5 3 3 4 4 3 3 3 2 2 2 2 2 2 2 1 0
11 9 10 11 13 12 9 9 8 8 7 7 7 7 6 4 4 3 3 3 3 3 3 2 2 2 2 1 1 2 3 3
10 12 15 11 16 13 11 10 8 8 8 8 7 7 5 4 5 5 4 2 2 2 2 1 1 2 3 3 4 3 2 1